Date String (YYYY-MM-DD hh:mm:ss) UTC,Instrument flags,Ambient pressure (hPa),Sample flow (lpm),Bypass flow (lpm),Sample temperature (°C),Ambient temperature (°C),ASC tube jacket temperature (°C),LED temperature (°C),Box temperature (°C),Sample RH (%),Span deviation,Mass concentration (μg/m³),Mass concentration (μg/m³),Mass concentration (μg/m³)
DateTimeUTC,F1_M11,P_M11,Q1_M11,Q2_M11,T1_M11,T2_M11,T3_M11,T4_M11,T5_M11,U1_M11,ZSPAN_M11,X0_M11,X2_M11,X1_M11
2022-11-22 16:00:00,,0829.8,5.00,0.00,22.4,21.2,00.0,31.2,24.2,07.8,0000.0,0004.54,0002.78,0002.38
2022-11-22 16:01:00,,0829.8,5.00,0.00,22.4,21.3,00.0,31.3,24.2,09.7,0000.0,0004.58,0002.81,0002.38
2022-11-22 16:02:00,,0829.8,5.01,0.00,22.4,21.3,00.0,31.3,24.3,09.9,0000.0,0004.56,0002.80,0002.38
2022-11-22 16:03:00,,0829.8,5.00,0.00,22.5,21.4,00.0,31.3,24.3,09.2,0000.0,0004.55,0002.80,0002.38
2022-11-22 16:04:00,,0829.8,5.00,0.00,22.5,21.4,00.0,31.3,24.3,09.1,0000.0,0004.39,0002.79,0002.38
2022-11-22 16:05:00,,0829.7,5.00,0.00,22.5,21.4,00.0,31.3,24.4,08.9,0000.0,0004.31,0002.78,0002.37
2022-11-22 16:06:00,,0829.7,4.99,0.00,22.5,21.4,00.0,31.3,24.3,09.0,0000.0,0004.31,0002.74,0002.33
2022-11-22 16:07:00,,0829.7,4.99,0.00,22.5,21.4,00.0,31.3,24.3,08.8,0000.0,0004.28,0002.74,0002.33
2022-11-22 16:08:00,,0829.7,5.00,0.00,22.5,21.5,00.0,31.3,24.4,08.6,0000.0,0004.63,0002.74,0002.33
2022-11-22 16:09:00,,0829.6,4.99,0.00,22.6,21.5,00.0,31.3,24.4,08.1,0000.0,0004.66,0002.77,0002.34
2022-11-22 16:10:00,,0829.7,5.01,0.00,22.6,21.5,00.0,31.4,24.4,07.7,0000.0,0004.69,0002.80,0002.37
2022-11-22 16:11:00,,0829.7,5.00,0.00,22.6,21.5,00.0,31.4,24.4,08.1,0000.0,0004.50,0002.75,0002.38
2022-11-22 16:12:00,,0829.6,5.00,0.00,22.6,21.5,00.0,31.4,24.4,08.5,0000.0,0004.66,0002.81,0002.41
2022-11-22 16:13:00,,0829.6,4.99,0.00,22.6,21.6,00.0,31.4,24.5,09.0,0000.0,0004.70,0002.83,0002.43
2022-11-22 16:14:00,,0829.7,5.00,0.00,22.6,21.6,00.0,31.4,24.5,08.0,0000.0,0004.81,0002.89,0002.48
2022-11-22 16:15:00,,0829.7,5.00,0.00,22.7,21.6,00.0,31.4,24.5,07.1,0000.0,0005.04,0002.99,0002.57
2022-11-22 16:16:00,,0829.7,5.00,0.00,22.7,21.7,00.0,31.5,24.6,06.9,0000.0,0005.01,0003.04,0002.65
2022-11-22 16:17:00,,0829.6,5.00,0.00,22.7,21.7,00.0,31.5,24.6,06.6,0000.0,0004.94,0003.09,0002.74
2022-11-22 16:18:00,,0829.7,5.02,0.00,22.7,21.7,00.0,31.5,24.6,06.5,0000.0,0004.90,0003.14,0002.83
2022-11-22 16:19:00,,0829.7,5.00,0.00,22.7,21.7,00.0,31.5,24.6,07.0,0000.0,0005.19,0003.19,0002.92
2022-11-22 16:20:00,,0829.8,4.99,0.00,22.8,21.7,00.0,31.5,24.7,07.7,0000.0,0004.94,0003.23,0002.99
2022-11-22 16:21:00,,0829.8,5.00,0.00,22.8,21.8,00.0,31.5,24.7,08.3,0000.0,0005.04,0003.25,0003.03
2022-11-22 16:22:00,,0829.8,5.01,0.00,22.8,21.8,00.0,31.6,24.7,09.9,0000.0,0005.12,0003.25,0003.03
2022-11-22 16:23:00,,0829.8,5.00,0.00,22.8,21.8,00.0,31.6,24.7,10.2,0000.0,0005.19,0003.26,0003.03
2022-11-22 16:24:00,,0829.8,5.00,0.00,22.8,21.8,00.0,31.6,24.8,09.7,0000.0,0005.07,0003.24,0003.03
2022-11-22 16:25:00,,0829.8,5.00,0.00,22.9,21.9,00.0,31.6,24.8,09.1,0000.0,0005.16,0003.23,0003.02
2022-11-22 16:26:00,,0829.7,5.00,0.00,22.9,21.9,00.0,31.6,24.8,09.3,0000.0,0005.03,0003.21,0002.99
2022-11-22 16:27:00,,0829.7,5.00,0.00,22.9,21.9,00.0,31.6,24.8,09.4,0000.0,0005.24,0003.21,0002.96
2022-11-22 16:28:00,,0829.6,4.99,0.00,22.9,22.0,00.0,31.7,24.8,09.1,0000.0,0005.13,0003.18,0002.91
2022-11-22 16:29:00,,0829.6,5.01,0.00,22.9,22.0,00.0,31.7,24.8,09.0,0000.0,0006.01,0003.14,0002.85
2022-11-22 16:30:00,,0829.7,5.00,0.00,23.0,22.0,00.0,31.7,24.9,09.5,0000.0,0006.25,0003.10,0002.78
2022-11-22 16:31:00,,0830.1,5.00,0.00,23.0,22.0,00.0,31.7,24.9,07.5,0000.0,0006.39,0003.11,0002.79
2022-11-22 16:32:00,,0829.8,5.01,0.00,23.0,22.0,00.0,31.7,24.9,07.3,0000.0,0006.65,0003.14,0002.83
2022-11-22 16:33:00,,0829.6,5.00,0.00,23.0,22.1,00.0,31.8,24.9,07.1,0000.0,0006.80,0003.20,0002.91
2022-11-22 16:34:00,,0829.6,4.99,0.00,23.0,22.1,00.0,31.8,25.0,07.4,0000.0,0006.87,0003.24,0002.98
2022-11-22 16:35:00,,0829.6,4.99,0.00,23.1,22.1,00.0,31.8,25.0,07.5,0000.0,0007.04,0003.28,0003.03
2022-11-22 16:36:00,,0829.6,5.01,0.00,23.1,22.1,00.0,31.8,25.0,07.0,0000.0,0007.39,0003.34,0003.08
2022-11-22 16:37:00,,0829.6,5.01,0.00,23.1,22.1,00.0,31.8,25.0,07.2,0000.0,0007.45,0003.37,0003.12
2022-11-22 16:38:00,,0829.6,5.00,0.00,23.1,22.1,00.0,31.9,25.0,07.7,0000.0,0007.35,0003.36,0003.13
2022-11-22 16:39:00,,0829.6,5.00,0.00,23.1,22.1,00.0,31.9,25.0,07.1,0000.0,0007.40,0003.38,0003.15
2022-11-22 16:40:00,,0829.6,4.99,0.00,23.1,22.2,00.0,31.9,25.0,07.1,0000.0,0006.73,0003.40,0003.17
2022-11-22 16:41:00,,0829.5,5.01,0.00,23.2,22.2,00.0,31.9,25.0,07.1,0000.0,0005.89,0003.43,0003.20
2022-11-22 16:42:00,,0829.6,5.01,0.00,23.2,22.2,00.0,31.9,25.1,06.9,0000.0,0005.95,0003.44,0003.20
2022-11-22 16:43:00,,0829.6,4.98,0.00,23.2,22.2,00.0,31.9,25.1,06.6,0000.0,0005.86,0003.45,0003.20
2022-11-22 16:44:00,,0829.6,5.00,0.00,23.2,22.3,00.0,32.0,25.1,06.6,0000.0,0005.82,0003.44,0003.20
2022-11-22 16:45:00,,0829.6,5.01,0.00,23.2,22.3,00.0,32.0,25.1,07.4,0000.0,0005.80,0003.44,0003.20
2022-11-22 16:46:00,,0829.6,5.00,0.00,23.3,22.3,00.0,32.0,25.2,08.1,0000.0,0005.88,0003.47,0003.23
2022-11-22 16:47:00,,0829.6,5.01,0.00,23.3,22.3,00.0,32.0,25.2,07.7,0000.0,0005.48,0003.46,0003.24
2022-11-22 16:48:00,,0829.5,4.99,0.00,23.3,22.4,00.0,32.0,25.2,08.1,0000.0,0005.44,0003.47,0003.25
2022-11-22 16:49:00,,0829.6,4.99,0.00,23.3,22.4,00.0,32.1,25.2,07.7,0000.0,0005.57,0003.51,0003.26
2022-11-22 16:50:00,,0829.5,5.01,0.00,23.3,22.4,00.0,32.1,25.2,07.8,0000.0,0005.65,0003.54,0003.28
2022-11-22 16:51:00,,0829.6,5.01,0.00,23.4,22.4,00.0,32.1,25.2,07.9,0000.0,0005.75,0003.57,0003.30
2022-11-22 16:52:00,,0829.5,4.99,0.00,23.4,22.4,00.0,32.1,25.2,07.3,0000.0,0007.10,0003.60,0003.32
2022-11-22 16:53:00,,0829.5,4.99,0.00,23.4,22.4,00.0,32.1,25.3,06.7,0000.0,0007.11,0003.61,0003.33
2022-11-22 16:54:00,,0829.5,5.01,0.00,23.4,22.4,00.0,32.2,25.3,06.8,0000.0,0006.87,0003.61,0003.35
2022-11-22 16:55:00,,0829.5,5.01,0.00,23.4,22.4,00.0,32.2,25.3,07.0,0000.0,0006.85,0003.62,0003.36
2022-11-22 16:56:00,,0829.5,5.01,0.00,23.4,22.5,00.0,32.2,25.3,07.2,0000.0,0006.88,0003.63,0003.36
2022-11-22 16:57:00,,0829.5,5.00,0.00,23.5,22.5,00.0,32.2,25.3,07.2,0000.0,0006.78,0003.61,0003.35
2022-11-22 16:58:00,,0829.5,5.00,0.00,23.5,22.5,00.0,32.2,25.4,07.4,0000.0,0006.70,0003.59,0003.35
2022-11-22 16:59:00,,0829.5,5.00,0.00,23.5,22.5,00.0,32.2,25.4,07.1,0000.0,0006.69,0003.59,0003.35
